Location: Veytaux
(46.4185°N, 6.9320°E)
Time: 08:11:56
(UTC+00:00)

Cosmos 2297 - Pass Details

Date: 27 May 2022
Orbit: 834 x 859 km, 71.0° (Epoch: 01 July)

Event Time Altitude Azimuth Distance (km) Brightness Sun altitude
Rises 01:12:15 0° 333° (NNW) 3,446 7.4 -18.4°
Reaches altitude 10° 01:14:43 10° 335° (NNW) 2,506 6.7 -18.2°
Maximum altitude 01:20:30 81° 63° (ENE) 876 3.8 -17.8°
Drops below altitude 10° 01:26:14 10° 151° (SSE) 2,484 5.8 -17.3°
Enters shadow 01:26:55 - 151° (SSE) 2,740 6.0 -17.3°
